2020-081K (46914 NORAD) Tracking and Keplerian Element Data
This shows tracking and keplerian element data for the satellite.
Feedback or suggestion? Click here.
Element | Value |
Catalog | 46914 |
Name | 2020-081K |
Epoch Orbit | 182 |
Epoch Day | 329.48858295 |
Epoch Year | 2020 |
RAAN | 358.6484 |
Inclination | 36.9044 |
Eccentricity | 0.0008537 |
Argument of Perigee | 136.8542 |
Mean Anonmoly | 223.2869 |
Mean Motion | 14.99533243 |
Decay Rate | 4.56E-06 |
L1 | 1 46914U 20081K 20329.48858295 .00000456 00000-0 42660-4 0 9997 |
L2 | 2 46914 36.9044 358.6484 0008537 136.8542 223.2869 14.99533243 1828 |
Live tracking and technical data element details for 2020-081K (NORAD 46914). 2020-081K can be tracked NOW for your location showing map with azimuth and elevation plus other details from your city location.
Track the satellite on the map from your city or location and see movement details for azimuth, elevation, latitude, longitude, range, height, and movement on the map or in text.
IsCatalogInMostPopularTable: catalog: 46914, numindb: 37
Update: records affected: 1
GetName: 46914 2020-081K
Hit Count: updated at: Fri, 22 Jan 2021 18:28:51 GMT